Decatur, TX

12:09 PM CST on February 21, 2017 (GMT -0600)
Decatur

Weather History for KLUD - September, 2013

Change the Weather History Date:

Friday, September 27, 2013

  Actual Average (KDTO) Record (KDTO)
Temperature  
Mean Temperature 78 °F -  
Max Temperature 86 °F 83 °F 99 °F (2005)
Min Temperature 69 °F 57 °F 45 °F (2000)
Cooling Degree Days 12    
Growing Degree Days 28 (Base 50)    
Moisture  
Dew Point 64 °F    
Average Humidity 60    
Maximum Humidity 78    
Minimum Humidity 46    
Precipitation  
Precipitation 0.00 in - - ()
Sea Level Pressure  
Sea Level Pressure 29.89 in    
Wind  
Wind Speed 10 mph (SSE)    
Max Wind Speed 22 mph    
Max Gust Speed 28 mph    
Visibility 10 miles    
Events      
Averages and records for this station are not official NWS values.
T = Trace of Precipitation, MM = Missing Value Source: NWS Daily Summary

Daily Weather History Graph

Daily Weather History Graph

Search for Another Location

Airport or City:

Trip Planner

Search our weather history database for the weather conditions in past years. The results will help you decide how hot, cold, wet, or windy it might be!

Date:

Astronomy

Sep. 27, 2013 Rise Set
Actual Time 7:22 AM CDT 7:19 PM CDT
Civil Twilight 6:57 AM CDT 7:44 PM CDT
Nautical Twilight 6:28 AM CDT 8:13 PM CDT
Astronomical Twilight 5:59 AM CDT 8:42 PM CDT
Moon 12:35 AM CDT (9/27) 2:43 PM CDT (9/27)
Length of Visible Light 12h 47m
Length of Day
11h 57m
Last Quarter, 45% of the Moon is Illuminated
Sep 27
Last Quarter
Oct 4
New
Oct 11
First Quarter
Oct 18
Full
Oct 26
Last Quarter

Hourly Weather History & Observations

Time (CDT) Temp. Heat Index Dew Point Humidity Pressure Visibility Wind Dir Wind Speed Gust Speed Precip Events Conditions
12:15 AM 74.7 °F - 52.3 °F 46% 29.89 in 10.0 mi South 6.9 mph - N/A   Clear
12:35 AM 74.3 °F - 52.7 °F 47% 29.89 in 10.0 mi South 4.6 mph - N/A   Clear
12:55 AM 73.4 °F - 53.1 °F 49% 29.89 in 10.0 mi SSE 5.8 mph - N/A   Clear
1:15 AM 72.5 °F - 53.2 °F 51% 29.90 in 10.0 mi South 4.6 mph - N/A   Clear
1:35 AM 73.4 °F - 53.2 °F 49% 29.90 in 10.0 mi SSE 5.8 mph - N/A   Clear
1:55 AM 73.4 °F - 53.6 °F 50% 29.90 in 10.0 mi SSE 8.1 mph - N/A   Clear
2:15 AM 73.4 °F - 53.8 °F 50% 29.90 in 10.0 mi SSE 6.9 mph - N/A   Clear
2:35 AM 73.4 °F - 54.5 °F 51% 29.91 in 10.0 mi SSE 8.1 mph - N/A   Clear
2:55 AM 73.2 °F - 55.0 °F 53% 29.91 in 10.0 mi South 8.1 mph - N/A   Scattered Clouds
3:15 AM 73.4 °F - 56.3 °F 55% 29.91 in 10.0 mi South 9.2 mph - N/A   Mostly Cloudy
3:35 AM 73.8 °F - 57.4 °F 56% 29.91 in 10.0 mi South 10.4 mph - N/A   Mostly Cloudy
3:55 AM 73.6 °F - 58.1 °F 58% 29.90 in 10.0 mi South 10.4 mph - N/A   Mostly Cloudy
4:15 AM 73.6 °F - 59.0 °F 60% 29.90 in 10.0 mi South 11.5 mph - N/A   Mostly Cloudy
4:35 AM 73.4 °F - 59.4 °F 61% 29.90 in 10.0 mi South 10.4 mph - N/A   Mostly Cloudy
4:55 AM 73.4 °F - 60.3 °F 63% 29.90 in 10.0 mi South 10.4 mph - N/A   Mostly Cloudy
5:15 AM 73.4 °F - 60.8 °F 65% 29.90 in 10.0 mi South 9.2 mph - N/A   Mostly Cloudy
5:35 AM 73.0 °F - 61.7 °F 67% 29.90 in 10.0 mi South 8.1 mph - N/A   Scattered Clouds
5:55 AM 72.7 °F - 62.1 °F 69% 29.91 in 10.0 mi South 6.9 mph - N/A   Mostly Cloudy
6:15 AM 72.7 °F - 62.8 °F 71% 29.91 in 10.0 mi SSE 8.1 mph - N/A   Mostly Cloudy
6:35 AM 72.0 °F - 63.1 °F 74% 29.91 in 10.0 mi SSE 6.9 mph - N/A   Mostly Cloudy
6:55 AM 71.6 °F - 63.5 °F 76% 29.92 in 10.0 mi SSE 6.9 mph - N/A   Scattered Clouds
7:15 AM 71.4 °F - 63.7 °F 76% 29.92 in 10.0 mi SSE 5.8 mph - N/A   Clear
7:35 AM 69.8 °F - 62.6 °F 78% 29.92 in 10.0 mi SE 5.8 mph - N/A   Clear
7:55 AM 69.8 °F - 62.2 °F 77% 29.92 in 10.0 mi SE 5.8 mph - N/A   Clear
8:15 AM 70.7 °F - 62.6 °F 75% 29.93 in 10.0 mi SSE 9.2 mph - N/A   Clear
8:35 AM 72.1 °F - 63.1 °F 73% 29.93 in 10.0 mi SSE 8.1 mph - N/A   Clear
8:55 AM 73.6 °F - 64.2 °F 72% 29.93 in 10.0 mi SSE 6.9 mph - N/A   Clear
9:15 AM 75.2 °F - 65.8 °F 73% 29.94 in 10.0 mi South 10.4 mph - N/A   Clear
9:35 AM 76.8 °F - 67.1 °F 72% 29.94 in 10.0 mi South 10.4 mph - N/A   Clear
9:55 AM 77.4 °F - 66.7 °F 70% 29.94 in 10.0 mi South 11.5 mph 17.3 mph N/A   Clear
10:15 AM 78.4 °F - 67.3 °F 68% 29.94 in 10.0 mi South 10.4 mph 18.4 mph N/A   Clear
10:35 AM 79.3 °F - 66.9 °F 66% 29.95 in 10.0 mi South 13.8 mph - N/A   Clear
10:55 AM 80.2 °F 82.6 °F 66.9 °F 64% 29.94 in 10.0 mi South 11.5 mph 17.3 mph N/A   Clear
11:15 AM 80.8 °F 82.9 °F 66.4 °F 61% 29.94 in 10.0 mi SSE 13.8 mph 19.6 mph N/A   Clear
11:35 AM 81.5 °F 83.9 °F 66.7 °F 61% 29.94 in 10.0 mi South 13.8 mph - N/A   Clear
11:55 AM 82.6 °F 84.7 °F 65.8 °F 57% 29.93 in 10.0 mi SSE 15.0 mph 21.9 mph N/A   Scattered Clouds
12:15 PM 83.3 °F 85.1 °F 65.3 °F 54% 29.93 in 10.0 mi South 17.3 mph 21.9 mph N/A   Scattered Clouds
12:35 PM 83.1 °F 84.8 °F 65.1 °F 54% 29.92 in 10.0 mi South 11.5 mph 18.4 mph N/A   Scattered Clouds
12:55 PM 83.8 °F 85.8 °F 65.7 °F 54% 29.92 in 10.0 mi South 16.1 mph 21.9 mph N/A   Scattered Clouds
1:15 PM 84.2 °F 86.6 °F 66.2 °F 55% 29.92 in 10.0 mi South 12.7 mph 21.9 mph N/A   Scattered Clouds
1:35 PM 84.0 °F 86.0 °F 65.5 °F 54% 29.91 in 10.0 mi South 13.8 mph 21.9 mph N/A   Scattered Clouds
1:55 PM 84.2 °F 86.1 °F 65.1 °F 53% 29.90 in 10.0 mi South 15.0 mph 23.0 mph N/A   Scattered Clouds
2:15 PM 84.2 °F 86.3 °F 65.8 °F 54% 29.89 in 10.0 mi South 13.8 mph 20.7 mph N/A   Scattered Clouds
2:35 PM 84.6 °F 87.1 °F 66.7 °F 55% 29.89 in 10.0 mi SSE 15.0 mph 19.6 mph N/A   Mostly Cloudy
2:55 PM 86.2 °F 88.2 °F 65.3 °F 50% 29.87 in 7.0 mi SSE 12.7 mph 21.9 mph N/A   Scattered Clouds
3:15 PM 86.2 °F 88.2 °F 65.5 °F 50% 29.87 in 4.0 mi South 16.1 mph 21.9 mph N/A   Haze
3:35 PM 86.5 °F 88.7 °F 65.8 °F 50% 29.86 in 7.0 mi South 18.4 mph 25.3 mph N/A   Scattered Clouds
3:55 PM 85.1 °F 87.4 °F 66.0 °F 53% 29.86 in 10.0 mi South 17.3 mph 23.0 mph N/A   Scattered Clouds
4:15 PM 85.3 °F 87.4 °F 65.8 °F 52% 29.86 in 10.0 mi South 21.9 mph 25.3 mph N/A   Scattered Clouds
4:35 PM 85.6 °F 87.9 °F 66.2 °F 52% 29.86 in 7.0 mi South 18.4 mph 25.3 mph N/A   Scattered Clouds
4:55 PM 85.3 °F 87.6 °F 66.2 °F 53% 29.86 in 3.0 mi South 15.0 mph 19.6 mph N/A   Haze
5:15 PM 86.0 °F 88.2 °F 66.0 °F 51% 29.85 in 10.0 mi South 13.8 mph 20.7 mph N/A   Scattered Clouds
5:35 PM 85.6 °F 87.9 °F 66.2 °F 52% 29.85 in 10.0 mi South 16.1 mph 23.0 mph N/A   Clear
5:55 PM 84.7 °F 87.1 °F 66.2 °F 54% 29.85 in 7.0 mi South 19.6 mph 24.2 mph N/A   Scattered Clouds
6:15 PM 84.9 °F 87.4 °F 66.4 °F 54% 29.85 in 10.0 mi SSE 16.1 mph 20.7 mph N/A   Mostly Cloudy
6:35 PM 84.6 °F 86.8 °F 66.4 °F 54% 29.85 in 10.0 mi South 13.8 mph 20.7 mph N/A   Scattered Clouds
6:55 PM 83.8 °F 86.0 °F 66.2 °F 55% 29.85 in 10.0 mi SSE 12.7 mph 20.7 mph N/A   Clear
7:15 PM 83.3 °F 85.7 °F 66.4 °F 57% 29.84 in 10.0 mi SSE 13.8 mph - N/A   Clear
7:35 PM 82.2 °F 84.7 °F 66.9 °F 60% 29.84 in 10.0 mi SSE 10.4 mph 19.6 mph N/A   Clear
7:55 PM 82.0 °F 84.5 °F 66.9 °F 60% 29.84 in 10.0 mi SSE 11.5 mph 18.4 mph N/A   Clear
8:15 PM 81.5 °F 83.9 °F 67.1 °F 61% 29.85 in 10.0 mi SE 11.5 mph 17.3 mph N/A   Scattered Clouds
8:35 PM 81.7 °F 84.2 °F 67.3 °F 61% 29.85 in 10.0 mi SSE 15.0 mph - N/A   Mostly Cloudy
8:55 PM 81.7 °F 84.3 °F 67.6 °F 62% 29.86 in 10.0 mi SSE 9.2 mph 18.4 mph N/A   Scattered Clouds
9:15 PM 81.5 °F 84.2 °F 68.0 °F 63% 29.87 in 10.0 mi SSE 11.5 mph - N/A   Mostly Cloudy
9:35 PM 81.0 °F 83.8 °F 68.0 °F 65% 29.87 in 10.0 mi SSE 11.5 mph 18.4 mph N/A   Mostly Cloudy
9:55 PM 81.0 °F 83.8 °F 68.2 °F 65% 29.88 in 10.0 mi SSE 16.1 mph 24.2 mph N/A   Mostly Cloudy
10:15 PM 80.8 °F 83.6 °F 68.4 °F 66% 29.88 in 7.0 mi SSE 16.1 mph 21.9 mph N/A   Mostly Cloudy
10:35 PM 80.6 °F 83.4 °F 68.4 °F 66% 29.88 in 10.0 mi SSE 18.4 mph 23.0 mph N/A   Mostly Cloudy
10:55 PM 80.2 °F 82.8 °F 68.0 °F 66% 29.88 in 10.0 mi SSE 17.3 mph 24.2 mph N/A   Mostly Cloudy
11:15 PM 79.9 °F - 67.6 °F 66% 29.88 in 10.0 mi SSE 16.1 mph 24.2 mph N/A   Scattered Clouds
11:35 PM 79.7 °F - 67.6 °F 66% 29.88 in 7.0 mi SSE 19.6 mph 23.0 mph N/A   Scattered Clouds
11:55 PM 79.7 °F - 67.8 °F 67% 29.88 in 10.0 mi SSE 17.3 mph 27.6 mph N/A   Scattered Clouds